Regional Weather Roundup
Issued by NWS Spokane, WA

Home | Current Version | Previous Version | Text Only | Print | Product List | Glossary On
Versions: 1 2 3 4 5 6 7 8 9 10 11 12 13 14 15 16 17 18 19 20 21 22 23 24 25 26 27 28 29 30 31 32 33 34 35 36 37 38 39 40 41 42 43 44 45 46 47 48 49 50
000
NZUS01 KOTX 261910
RWROTX
EASTERN WASHINGTON/NORTHERN IDAHO ROUNDUP
NATIONAL WEATHER SERVICE, SPOKANE WA
1200 PM PDT SUN APR 26 2015

Note: "fair" indicated few or no clouds below 12,000 feet with no
significant weather and/or obstructions to visibility.

...NORTHEAST WASHINGTON AND NORTHERN IDAHO PANHANDLE...

CITY           SKY/WX    TMP DP  RH WIND       PRES   REMARKS
SPOKANE INTL   PTSUNNY   50  27  40 VRB3      30.18R
SPOKANE DOWNTO MOSUNNY   53  33  46 CALM      30.19F
COEUR D ALENE  SUNNY     52  36  54 W7        30.20S
DEER PARK      SUNNY     48  37  65 SE6       30.20S
SANDPOINT      SUNNY     50  39  66 E12       30.16F
BONNERS FERRY  MOCLDY    50  32  50 CALM      30.15S

...SOUTHEAST WASHINGTON AND SOUTHERN IDAHO PANHANDLE...

CITY           SKY/WX    TMP DP  RH WIND       PRES   REMARKS
WALLA WALLA    SUNNY     58  29  33 NW6       30.21S
PULLMAN/MOSCOW MOSUNNY   52  31  44 NW12G21   30.21R
LEWISTON       MOSUNNY   57  31  37 VRB6      30.20R
LOWELL           N/A     55  33  43 VRB5      30.19R

...COLUMBIA BASIN...

CITY           SKY/WX    TMP DP  RH WIND       PRES   REMARKS
EPHRATA        MOSUNNY   57  30  35 SE7       30.19S
MOSES LAKE     MOSUNNY   56  30  37 SW8       30.21S
TRI CITIES     SUNNY     59  30  33 VRB3      30.22S
HERMISTON      SUNNY     59  31  34 W10       30.21S
PENDLETON      MOSUNNY   57  31  37 W7        30.20R

...EAST SLOPES CASCADES...

CITY           SKY/WX    TMP DP  RH WIND       PRES   REMARKS
THE DALLES     CLOUDY    60  33  36 CALM      30.21S
YAKIMA         MOSUNNY   60  25  26 E8        30.20S
ELLENSBURG     PTSUNNY   56  26  31 CALM      30.19S
WENATCHEE      PTSUNNY   57  27  31 VRB5      30.18F
OMAK           SUNNY     56  32  40 VRB5      30.18S

...SOUTHERN BRITISH COLUMBIA...

CITY           SKY/WX    TMP DP  RH WIND       PRES   REMARKS
PENTICTON      PTSUNNY   59  34  38 SE13      30.15S
CASTLEGAR      MOSUNNY   52  39  62 S9        30.18F

...WESTERN MONTANA...

CITY           SKY/WX    TMP DP  RH WIND       PRES   REMARKS
MISSOULA       CLOUDY    45  37  73 VRB7      30.15R

...NEIGHBORING CITIES...

CITY           SKY/WX    TMP DP  RH WIND       PRES   REMARKS
SEATTLE        CLOUDY    54  37  52 S7        30.23R
CALGARY        PTSUNNY   46  23  39 S6        30.11F



USA.gov is the U.S. government's official web portal to all federal, state and local government web resources and services.